weather.gov     
National Weather Service

Regional Weather Roundup
NWS Homepage
This page is being discontinued on March 12, 2014.
The same data is available at this site. Please update your bookmarks.
Thank you, and we apologize for the inconvenience.
Please send an email to SR-SRH.Webmaster@noaa.gov with any concerns.


Current Version
Previous Version:    01  02  03  04  05  06  07  08  09  10  11  12  13  14  15  16  17  18  19  20  21  22  23  24  25  26  27  28  29  30  
   31  32  33  34  35  36  37  38  39  40  41  42  43  44  45  46  47  48  49  50  51  52  53  
[Printable]
808
ASUS43 KMPX 221910
RWRMN
WEATHER ROUNDUP FOR MINNESOTA
NATIONAL WEATHER SERVICE TWIN CITIES/CHANHASSEN MN
100 PM CST MON DEC 22 2014


NOTE: "FAIR" INDICATES FEW OR NO CLOUDS BELOW 12,000 FEET WITH NO
SIGNIFICANT WEATHER AND/OR OBSTRUCTIONS TO VISIBILITY. N/A MEANS
CURRENT SKY AND/OR WEATHER CONDITIONS ARE NOT AVAILABLE.

MNZ060>063-068>070-222000-
   Twin Cities Metro

CITY           SKY/WX    TMP DP  RH WIND       PRES   REMARKS
TWIN CITIES    LGT RAIN  36  34  92 SE14      29.60F FOG
ST PAUL        CLOUDY    36  34  92 E10       29.62F FOG
CRYSTAL        LGT RAIN  37  34  89 SE10      29.59F FOG
BLAINE         LGT RAIN  37  37 100 E10       29.60F
LAKEVILLE      DRIZZLE   36  34  93 SE9       29.59F
EDEN PRAIRIE   CLOUDY    37  34  89 SE13      29.58F FOG
SOUTH ST PAUL  DRIZZLE   37  35  94 SE7       29.61F
LAKE ELMO      DRIZZLE   36  36 100 SE9       29.63F
$$
MNZ001>005-007-008-013>017-022>024-027-028-222000-
   Northwest Minnesota

CITY           SKY/WX    TMP DP  RH WIND       PRES   REMARKS
BEMIDJI        CLOUDY    35  34  98 SE12G17   29.56S FOG     WCI  26
HALLOCK        PTSUNNY   36  34  93 E9        29.57F FOG
ROSEAU         CLOUDY    36  30  80 E6        29.60R HAZE
WARROAD        CLOUDY    34  30  86 E5        29.61S FOG     WCI  30
THIEF RVR FALL CLOUDY    36  36 100 E8        29.56R
CROOKSTON      MIX PCPN  37  36  93 E8        29.55S
FOSSTON        CLOUDY    36  36 100 E7        29.54S
DETROIT LAKES  CLOUDY    36  36 100 SE10G16   29.52S FOG
MOORHEAD       DRIZZLE   39  39 100 SE9       29.50F
PARK RAPIDS    CLOUDY    37  35  92 SE9       29.54F
MAHNOMEN       CLOUDY    37  36  96 SE10      29.52S
$$
MNZ006-009>011-018-025>026-222000-
   North Central Minnesota

CITY           SKY/WX    TMP DP  RH WIND       PRES   REMARKS
BAUDETTE       CLOUDY    35  33  92 E9        29.60F WCI  28
FLAG ISLAND    CLOUDY    34  32  93 E7        29.62S WCI  28
INTL FALLS     CLOUDY    34  33  96 SE8       29.64S WCI  27
WASKISH        CLOUDY    36  36 100 CALM      29.59F
BIG FORK       MIX PCPN  36  34  93 SE7       29.62F
LONGVILLE      DRIZZLE   36  34  93 SE6       29.58S
GRAND RAPIDS   CLOUDY    34  32  93 SE8       29.61F WCI  27
CRANE LAKE     LGT RAIN  34  34 100 CALM      29.68S
ORR            CLOUDY    34  32  93 SE3       29.63S
COOK           LGT SNOW  34  34 100 SE3       29.65F
WALKER         DRIZZLE   34  33  96 SE5       29.57S WCI  30
$$
MNZ012-019>021-037-222000-
   Northeast Minnesota

CITY           SKY/WX    TMP DP  RH WIND       PRES   REMARKS
DULUTH         SNOW      34  32  92 SE14      29.65F VSB 1/4 WCI  25
ELY            DRIZZLE   34  32  93 SE6       29.67S WCI  29
HIBBING        LGT SNOW  34  32  92 SE8       29.64S FOG     WCI  27
EVELETH        LGT RAIN  34  34 100 SE7       29.66S WCI  28
DULUTH HARBOR  CLOUDY    36  34  93 E6        29.70S FOG
TWO HARBORS    CLOUDY    36  30  80 E6        29.68F VSB<1/4
SILVER BAY     DRIZZLE   36  34  93 CALM      29.69F
GRAND MARAIS     N/A     37  35  92 SE8       29.76F
G MARAIS ARPRT LGT RAIN  30  28  93 CALM      29.71F VSB<1/4
$$
MNZ029>031-032-039>041-046>048-054>057-064-222000-
   West Central Minnesota

CITY           SKY/WX    TMP DP  RH WIND       PRES   REMARKS
FERGUS FALLS   CLOUDY    37  37 100 SE12G17   29.52S
WHEATON        CLOUDY    36  36 100 E16       29.47F FOG
MORRIS         DRIZZLE   37  37 100 SE18      29.46F
ALEXANDRIA     CLOUDY    35  34  96 SE13      29.51F WCI  26
ELBOW LAKE     DRIZZLE   37  36  99 SE10      29.48F
WADENA         CLOUDY    36  34  93 SE13      29.53S
GLENWOOD       RAIN      36  36 100 E15       29.51F
APPLETON       LGT RAIN  39  37  93 SE13G18   29.46F
BENSON         MIX PCPN  37  36  93 SE12G21   29.49S
ORTONVILLE     DRIZZLE   37  36  93 SE13      29.44F
MADISON        LGT RAIN  41  39  93 SE14      29.44F
WILLMAR        LGT RAIN  37  36  93 SE15G21   29.52S
$$
MNZ033>034-036-042>043-049>051-058-059-222000-
   Central Minnesota

CITY           SKY/WX    TMP DP  RH WIND       PRES   REMARKS
ST CLOUD       CLOUDY    38  34  85 E12       29.57F FOG
SAUK CENTRE    DRIZZLE   35  34  97 E10       29.53F WCI  27
PAYNESVILLE    LGT RAIN  33  33 100 E13       29.53F WCI  24
AITKIN         CLOUDY    37  32  81 SE7       29.59S HAZE
PINE RIVER     DRIZZLE   34  34 100 SE10      29.61F WCI  26
BRAINERD       LGT RAIN  35  34  96 SE10      29.58F FOG     WCI  27
STAPLES        LGT RAIN  36  36 100 SE8       29.55S
LONG PRAIRIE   MIX PCPN  34  32  93 E10       29.54S WCI  26
LITTLE FALLS     N/A    N/A N/A N/A SE10      29.57F
LITCHFIELD     LGT RAIN  36  36 100 SE15      29.55S
BUFFALO        LGT RAIN  36  33  90 E9        29.58F
MAPLE LAKE     DRIZZLE   37  36  96 E9        29.58S
$$
MNZ037-044-045-052-053-222000-
   East Central Minnesota

CITY           SKY/WX    TMP DP  RH WIND       PRES   REMARKS
PRINCETON      RAIN      37  36  93 E10       29.60F
MORA           CLOUDY    32  32 100 E7        29.64F WCI  26
CAMBRIDGE      LGT RAIN  37  30  75 E7        29.60F
RUSH CITY      CLOUDY    35  33  94 SE8       29.63F FOG     WCI  28
MOOSE LAKE     DRIZZLE   34  32  93 SE3       29.63F
HINCKLEY       DRIZZLE   36  34  93 E9        29.64S
CLOQUET        SNOW      34  34 100 E6        29.65S VSB 1/4 WCI  29
MCGREGOR       CLOUDY    34  34 100 SE9       29.62F WCI  26
$$
MNZ071>073-080-081-089-090-097-098-222000-
   Southwest Minnesota

CITY           SKY/WX    TMP DP  RH WIND       PRES   REMARKS
MONTEVIDEO     DRIZZLE   37  37 100 S16       29.48S
GRANITE FALLS  LGT RAIN  38  37  97 E14G21    29.49S
CANBY          DRIZZLE   39  38  98 SE12      29.44F
MARSHALL       CLOUDY    39  36  87 SE13      29.45F
REDWOOD FALLS  LGT RAIN  39  37  92 SE17      29.49F
OLIVIA         LGT RAIN  37  36  93 SE15      29.50F
PIPESTONE      LGT RAIN  37  37 100 S9        29.40F
WINDOM         DRIZZLE   37  37 100 SE13      29.47F
WORTHINGTON    CLOUDY    37 -11  12 SE15G21   29.44F
JACKSON        DRIZZLE   37  36  93 SE13      29.48F
TRACY          RAIN      39  38  95 SE14      29.45F
SLAYTON        LGT RAIN  37  37 100 SE14      29.44F
$$
MNZ065>067-074>077-082>085-091>093-222000-
   South Central Minnesota

CITY           SKY/WX    TMP DP  RH WIND       PRES   REMARKS
MANKATO        CLOUDY    37  32  81 SE16      29.55F
NEW ULM        LGT RAIN  37  37 100 SE14      29.52F
ST JAMES       DRIZZLE   39  37  93 SE16      29.51
FAIRMONT       CLOUDY    37  34  87 SE15      29.50F
GLENCOE        DRIZZLE   37  37  98 SE14      29.55F
FARIBAULT      DRIZZLE   36  34  93 SE13G21   29.59S
OWATONNA       RAIN      36  34  93 SE20      29.57F
WASECA         LGT SNOW  36  36 100 SE16      29.57F
ALBERT LEA     LGT SNOW  34  34 100 SE10G16   29.55F WCI  26
$$
MNZ078>079-086>088-094>096-222000-
   Southeast Minnesota

CITY           SKY/WX    TMP DP  RH WIND       PRES   REMARKS
ROCHESTER      LGT RAIN  36  33  89 SE17      29.60F FOG
RED WING       LGT SNOW  36  36 100 SE13      29.62F
STANTON        RAIN      37  34  89 SE9G17    29.59F
DODGE CENTER   LGT RAIN  36  36 100 SE17      29.58F
WINONA         CLOUDY    41  32  70 SE12      29.66F
AUSTIN         LGT RAIN  34  34 100 SE13      29.58F WCI  25
PRESTON        CLOUDY    35  32  91 SE10G20   29.61F FOG     WCI  27
$$
ABBREVIATIONS USED IN REMARKS
   TC - TEMPERATURES IN CELSIUS
  WCI - WIND CHILL INDEX
   HX - HEAT INDEX
  VSB - VISIBILITY
$$




U.S. Dept. of Commerce
NOAA National Weather Service
1325 East West Highway
Silver Spring, MD 20910
E-mail: w-nws.webmaster@noaa.gov
Page last modified: May 16, 2007
NATIONAL WEATHER SERVICE: for Safety, for Work, for Fun - FOR LIFE